Flag for Cuba

Past Weather in Provincia de Ciego de Ávila, Cuba — Yesterday and Last 2 Weeks

Now
91 °F

Partly sunny.


Feels Like: 99 °F
Forecast: 90 / 75 °F
Wind: 3 mph from North

Location: Santa Bárbara

Current Time: Jul 2, 2020 at 4:08:22 pm

Latest Report: Jul 2, 2020 at 2:50 pm


Visibility: 6 mi

Pressure: 29.95 "Hg

Humidity: 52%

Dew Point: 72 °F

Location of Provincia de Ciego de ÁvilaLocation

Past Weather in Provincia de Ciego de Ávila — Graph

°F

Provincia de Ciego de Ávila Temperature Yesterday

Maximum temperature yesterday: 91 °F (at 3:50 pm)
Minimum temperature yesterday: 73 °F (at 6:52 am)
Average temperature yesterday: 82 °F

High & Low Weather Summary for the Past Weeks

 TemperatureHumidityPressure
High93 °F (Jun 22, 2:50 pm)100% (Jun 20, 2:51 am)30.12 "Hg (Jun 20, 2:51 am)
Low72 °F (Jun 28, 7:50 pm)49% (Jun 18, 2:50 pm)29.92 "Hg (Jul 1, 4:52 pm)
Average82 °F79%30.03 "Hg
* Reported Jun 17 2:06 pm — Jul 2 1:51 pm, Provincia de Ciego de Ávila. Weather by CustomWeather, © 2020

Note: Actual official high and low records may vary slightly from our data, if they occured in-between our weather recording intervals... More about our weather records

Provincia de Ciego de Ávila Weather History for the Previous 24 Hours

Scroll right to see more
 ConditionsComfort  
Time TempWeatherWind HumidityBarometerVisibility
1:51 pm
Thu, Jul 2
90 °FScattered clouds.3 mph55%29.98 "Hg6 mi
12:51 pm88 °FScattered clouds.7 mph59%30.01 "Hg6 mi
11:50 am90 °FScattered clouds.8 mph59%30.01 "Hg6 mi
10:51 am86 °FScattered clouds.10 mph70%30.01 "Hg6 mi
9:52 am84 °FPassing clouds.10 mph74%30.01 "Hg6 mi
8:51 am81 °FScattered clouds.9 mph84%30.01 "Hg6 mi
7:50 am77 °FScattered clouds.5 mph89%29.98 "Hg6 mi
6:50 am73 °FPassing clouds.3 mph94%29.98 "Hg5 mi
5:50 am73 °FPassing clouds.2 mph89%29.98 "Hg6 mi
4:51 am72 °FPassing clouds.1 mph94%29.95 "Hg6 mi
3:50 am72 °FPassing clouds.2 mph94%29.98 "Hg6 mi
2:51 am72 °FPassing clouds.3 mph94%29.98 "Hg6 mi
1:50 am73 °FPassing clouds.2 mph89%29.98 "Hg6 mi
12:51 am73 °FPassing clouds.3 mph89%30.01 "Hg6 mi
11:50 pm
Wed, Jul 1
73 °FThundershowers. Passing clouds.1 mph83%30.04 "Hg6 mi
10:50 pm73 °FPartly cloudy.3 mph89%30.04 "Hg6 mi
9:51 pm73 °FThundershowers. Partly cloudy.14 mph89%30.04 "Hg5 mi
8:51 pm82 °FThundershowers. Passing clouds.7 mph79%30.01 "Hg6 mi
7:51 pm82 °FThundershowers. Partly sunny.6 mph79%29.98 "Hg6 mi
6:50 pm84 °FThundershowers. Partly sunny.13 mph74%29.95 "Hg6 mi
5:50 pm88 °FThundershowers. Partly sunny.15 mph66%29.92 "Hg5 mi
5:29 pm90 °FThundershowers. Partly sunny.13 mph59%29.92 "Hg6 mi
4:52 pm90 °FScattered clouds.12 mph59%29.92 "Hg6 mi
Weather by CustomWeather, © 2020

See weather overview